Flag for Madagascar Weather past 2 weeks in Toamasina, Madagascar

Now
86 °F

Broken clouds.


Feels Like: 95 °F
Forecast: 74 / 80 °F
Wind: 12 mph from East

Location: Tamatave

Current Time: Feb 1, 2015 at 1:22:01 PM

Latest Report: Feb 1, 2015 at 12:00 PM


Visibility: N/A

Pressure: 29.86 "Hg

Humidity: 70%

Dew point: 75 °F

Location of ToamasinaLocation

Historic Weather in Toamasina — Graph

°F

Toamasina temperature yesterday

Maximum temperature yesterday: 88 °F (at 11:00 AM)
Minimum temperature yesterday: 73 °F (at 2:00 AM)
Average temperature yesterday: 80 °F

Past Weeks' High & Low Weather Summary

 TemperatureHumidityPressure
High100 °F (Jan 17, 2:00 PM)100% (Jan 18, 8:00 PM)29.95 "Hg (Jan 18, 8:00 PM)
Low73 °F (Jan 24, 3:00 AM)42% (Jan 17, 2:00 PM)29.42 "Hg (Jan 17, 3:00 PM)
Average81 °F83%29.83 "Hg
* Reported Jan 17 1:00 PM — Feb 1 12:00 Noon, Toamasina, Weather by CustomWeather, © 2014

Note: Actual official high and low records may vary slightly from our data, if they occured in-between our weather recording intervals... More about our weather records

Advertising

Toamasina weather history for previous 24 hours

 ConditionsComfort  
Time TempWeatherWind HumidityBarometerVisibility
12:00 PM
Feb 1
86 °FBroken clouds.12 mph70%29.86 "HgN/A
11:00 AM84 °FBroken clouds.7 mph70%29.86 "HgN/A
10:00 AM86 °FBroken clouds.7 mph70%29.89 "HgN/A
9:00 AM84 °FBroken clouds.5 mph70%29.89 "HgN/A
8:00 AM79 °FPartly sunny.No wind89%29.89 "HgN/A
7:00 AM77 °FPartly sunny.No wind94%29.86 "HgN/A
6:00 AM77 °FScattered showers. Broken clouds.2 mph94%29.86 "HgN/A
5:00 AM75 °FPartly cloudy.No wind94%29.83 "HgN/A
4:00 AM75 °FPartly cloudy.No wind94%29.83 "HgN/A
3:00 AM77 °FPartly cloudy.No wind94%29.86 "HgN/A
2:00 AM77 °FPartly cloudy.No wind94%29.89 "HgN/A
1:00 AM77 °FPartly cloudy.No wind94%29.89 "HgN/A
12:00 AM77 °FPartly cloudy.No wind94%29.89 "HgN/A
11:00 PM
Jan 31
81 °FPartly cloudy.No wind84%29.89 "HgN/A
10:00 PM81 °FPartly cloudy.5 mph79%29.89 "HgN/A
9:00 PM82 °FPartly cloudy.5 mph74%29.89 "HgN/A
8:00 PM82 °FPartly cloudy.No wind79%29.86 "HgN/A
7:00 PM82 °FPartly cloudy.No wind79%29.86 "HgN/A
6:00 PM82 °FPartly sunny.No wind74%29.86 "HgN/A
5:00 PM84 °FBroken clouds.No wind74%29.83 "HgN/A
4:00 PM84 °FPartly sunny.2 mph70%29.83 "HgN/A
3:00 PM86 °FPartly sunny.2 mph66%29.83 "HgN/A
2:00 PM86 °FBroken clouds.5 mph66%29.86 "HgN/A
1:00 PM86 °FBroken clouds.7 mph62%29.86 "HgN/A
Weather by CustomWeather, © 2014

See weather overviewHow to use our weather pages